| time (UTC) | temp C | wind direction | speed KPH | gust KPH | rain 1hr cm | rain 24hr cm | rain mn cm | humidity % | barometer mb |
| 20260504050649 | 17 | 168 | 4.8 | 12.9 | 0.00 | 0.00 | 0.00 | 67 | 1011.2 |
| 20260504045548 | 17 | 190 | 4.8 | 29.0 | 0.00 | 0.00 | 0.00 | 66 | 1011.3 |
| 20260504045044 | 17 | 153 | 4.8 | 16.1 | 0.00 | 0.00 | 0.00 | 66 | 1011.4 |
| 20260504044547 | 17 | 254 | 6.4 | 16.1 | 0.00 | 0.00 | 0.00 | 66 | 1011.3 |
| 20260504044044 | 17 | 200 | 6.4 | 19.3 | 0.00 | 0.00 | 0.00 | 66 | 1011.4 |
| 20260504043544 | 17 | 189 | 3.2 | 19.3 | 0.00 | 0.00 | 0.00 | 66 | 1011.5 |
| 20260504043107 | 17 | 176 | 4.8 | 14.5 | 0.00 | 0.00 | 0.00 | 66 | 1011.5 |
| 20260504042543 | 17 | 235 | 4.8 | 14.5 | 0.00 | 0.00 | 0.00 | 66 | 1011.4 |
| 20260504042046 | 17 | 200 | 6.4 | 14.5 | 0.00 | 0.00 | 0.00 | 66 | 1011.6 |
| 20260504041543 | 17 | 211 | 3.2 | 9.7 | 0.00 | 0.00 | 0.00 | 67 | 1011.7 |
| 20260504041043 | 17 | 205 | 3.2 | 11.3 | 0.00 | 0.00 | 0.00 | 67 | 1011.7 |
| 20260504040644 | 17 | 193 | 3.2 | 11.3 | 0.00 | 0.00 | 0.00 | 67 | 1011.7 |
| 20260504040043 | 17 | 194 | 4.8 | 12.9 | 0.00 | 0.00 | 0.00 | 67 | 1011.7 |
| 20260504035544 | 17 | 192 | 4.8 | 16.1 | 0.00 | 0.00 | 0.00 | 67 | 1011.8 |
| 20260504035043 | 17 | 169 | 4.8 | 16.1 | 0.00 | 0.00 | 0.00 | 66 | 1011.9 |
| 20260504034547 | 17 | 216 | 1.6 | 9.7 | 0.00 | 0.00 | 0.00 | 66 | 1012.0 |
| 20260504034043 | 17 | 196 | 3.2 | 9.7 | 0.00 | 0.00 | 0.00 | 66 | 1012.1 |
| 20260504033542 | 17 | 198 | 3.2 | 16.1 | 0.00 | 0.00 | 0.00 | 65 | 1012.1 |
| 20260504033042 | 17 | 200 | 3.2 | 16.1 | 0.00 | 0.00 | 0.00 | 65 | 1012.2 |
| 20260504032542 | 17 | 190 | 4.8 | 16.1 | 0.00 | 0.00 | 0.00 | 65 | 1012.2 |
| 20260504032042 | 17 | 196 | 4.8 | 17.7 | 0.00 | 0.00 | 0.00 | 65 | 1012.3 |
| 20260504031550 | 17 | 209 | 3.2 | 16.1 | 0.00 | 0.00 | 0.00 | 65 | 1012.4 |
| 20260504031044 | 17 | 220 | 6.4 | 16.1 | 0.00 | 0.00 | 0.00 | 65 | 1012.2 |
| 20260504030502 | 17 | 174 | 3.2 | 12.9 | 0.00 | 0.00 | 0.00 | 65 | 1012.4 |
| 20260504030002 | 17 | 205 | 3.2 | 12.9 | 0.00 | 0.00 | 0.00 | 65 | 1012.4 |
| 20260504025502 | 17 | 198 | 3.2 | 12.9 | 0.00 | 0.00 | 0.00 | 65 | 1012.3 |
| 20260504025004 | 17 | 176 | 3.2 | 11.3 | 0.00 | 0.00 | 0.00 | 65 | 1012.3 |
| 20260504024502 | 17 | 171 | 1.6 | 8.0 | 0.00 | 0.00 | 0.00 | 65 | 1012.4 |
| 20260504024001 | 17 | 191 | 3.2 | 11.3 | 0.00 | 0.00 | 0.00 | 66 | 1012.3 |
| 20260504023502 | 17 | 170 | 1.6 | 11.3 | 0.00 | 0.00 | 0.00 | 66 | 1012.3 |
| 20260504023002 | 17 | 186 | 0.0 | 8.0 | 0.00 | 0.00 | 0.00 | 67 | 1012.2 |
| 20260504022503 | 17 | 159 | 1.6 | 6.4 | 0.00 | 0.00 | 0.00 | 66 | 1012.1 |
| 20260504022000 | 17 | 190 | 1.6 | 9.7 | 0.00 | 0.00 | 0.00 | 66 | 1012.1 |
| 20260504021552 | 17 | 189 | 3.2 | 9.7 | 0.00 | 0.00 | 0.00 | 66 | 1011.4 |
| 20260504021051 | 17 | 197 | 3.2 | 8.0 | 0.00 | 0.00 | 0.00 | 66 | 1011.5 |
| 20260504020650 | 17 | 215 | 1.6 | 6.4 | 0.00 | 0.00 | 0.00 | 65 | 1011.4 |
| 20260504020045 | 17 | 192 | 1.6 | 9.7 | 0.00 | 0.00 | 0.00 | 66 | 1011.6 |
| 20260504015545 | 17 | 197 | 1.6 | 9.7 | 0.00 | 0.00 | 0.00 | 65 | 1011.5 |
| 20260504015045 | 17 | 194 | 1.6 | 4.8 | 0.00 | 0.00 | 0.00 | 65 | 1011.4 |
| 20260504014544 | 17 | 186 | 1.6 | 4.8 | 0.00 | 0.00 | 0.00 | 63 | 1011.3 |
| 20260504014044 | 18 | 194 | 1.6 | 12.9 | 0.00 | 0.00 | 0.00 | 62 | 1011.4 |
| 20260504013547 | 18 | 171 | 1.6 | 12.9 | 0.00 | 0.00 | 0.00 | 63 | 1011.3 |
| 20260504013050 | 17 | 171 | 1.6 | 6.4 | 0.00 | 0.00 | 0.00 | 63 | 1011.3 |
| 20260504012544 | 17 | 200 | 1.6 | 6.4 | 0.00 | 0.00 | 0.00 | 64 | 1011.3 |
| 20260504012044 | 17 | 186 | 1.6 | 6.4 | 0.00 | 0.00 | 0.00 | 63 | 1011.2 |
| 20260504011544 | 18 | 198 | 1.6 | 4.8 | 0.00 | 0.00 | 0.00 | 62 | 1011.2 |
| 20260504011046 | 18 | 190 | 0.0 | 8.0 | 0.00 | 0.00 | 0.00 | 62 | 1011.2 |
| 20260504010643 | 18 | 178 | 1.6 | 8.0 | 0.00 | 0.00 | 0.00 | 60 | 1011.0 |
| 20260504010053 | 20 | 194 | 3.2 | 9.7 | 0.00 | 0.00 | 0.00 | 58 | 1011.1 |
| 20260504005542 | 20 | 187 | 3.2 | 9.7 | 0.00 | 0.00 | 0.00 | 55 | 1011.0 |
| 20260504005043 | 20 | 165 | 3.2 | 9.7 | 0.00 | 0.00 | 0.00 | 55 | 1011.0 |
| 20260504004546 | 20 | 182 | 4.8 | 9.7 | 0.00 | 0.00 | 0.00 | 53 | 1010.9 |
| 20260504004042 | 21 | 188 | 3.2 | 11.3 | 0.00 | 0.00 | 0.00 | 53 | 1011.0 |
| 20260504003542 | 21 | 215 | 4.8 | 16.1 | 0.00 | 0.00 | 0.00 | 53 | 1011.0 |
| 20260504003043 | 21 | 197 | 1.6 | 17.7 | 0.00 | 0.00 | 0.00 | 52 | 1011.0 |
| 20260504002541 | 21 | 184 | 4.8 | 17.7 | 0.00 | 0.00 | 0.00 | 51 | 1010.9 |
| 20260504002041 | 22 | 211 | 6.4 | 16.1 | 0.00 | 0.00 | 0.00 | 50 | 1011.0 |
| 20260504001541 | 22 | 213 | 4.8 | 32.2 | 0.00 | 0.00 | 0.00 | 50 | 1011.0 |
| 20260504001043 | 22 | 200 | 6.4 | 32.2 | 0.00 | 0.00 | 0.00 | 49 | 1011.0 |
| 20260504000640 | 22 | 219 | 6.4 | 16.1 | 0.00 | 0.00 | 0.00 | 49 | 1011.0 |
| 20260504000038 | 22 | 169 | 6.4 | 17.7 | 0.00 | 0.00 | 0.00 | 49 | 1011.0 |
| 20260503235538 | 22 | 171 | 6.4 | 22.5 | 0.00 | 0.00 | 0.00 | 49 | 1011.0 |
| 20260503235038 | 22 | 155 | 4.8 | 22.5 | 0.00 | 0.00 | 0.00 | 48 | 1011.0 |
| 20260503234541 | 22 | 188 | 4.8 | 16.1 | 0.00 | 0.00 | 0.00 | 49 | 1011.0 |
| 20260503234041 | 22 | 200 | 4.8 | 16.1 | 0.00 | 0.00 | 0.00 | 49 | 1011.1 |
| 20260503233537 | 22 | 234 | 4.8 | 17.7 | 0.00 | 0.00 | 0.00 | 48 | 1011.1 |
| 20260503233038 | 22 | 201 | 4.8 | 16.1 | 0.00 | 0.00 | 0.00 | 48 | 1011.1 |
| 20260503232537 | 22 | 187 | 4.8 | 27.4 | 0.00 | 0.00 | 0.00 | 48 | 1011.2 |
| 20260503232036 | 22 | 238 | 8.0 | 29.0 | 0.00 | 0.00 | 0.00 | 48 | 1011.3 |
| 20260503231536 | 23 | 213 | 6.4 | 19.3 | 0.00 | 0.00 | 0.00 | 47 | 1011.2 |
| 20260503231038 | 22 | 197 | 6.4 | 27.4 | 0.00 | 0.00 | 0.00 | 48 | 1011.3 |
| 20260503230637 | 22 | 188 | 12.9 | 27.4 | 0.00 | 0.00 | 0.00 | 47 | 1011.3 |
| 20260503230110 | 22 | 179 | 3.2 | 29.0 | 0.00 | 0.00 | 0.00 | 47 | 1011.4 |
| 20260503225555 | 23 | 184 | 12.9 | 30.6 | 0.00 | 0.00 | 0.00 | 47 | 1011.5 |
| 20260503225054 | 23 | 231 | 9.7 | 30.6 | 0.00 | 0.00 | 0.00 | 47 | 1011.5 |
| 20260503224554 | 23 | 168 | 9.7 | 27.4 | 0.00 | 0.00 | 0.00 | 47 | 1011.5 |
| 20260503224054 | 23 | 221 | 6.4 | 20.9 | 0.00 | 0.00 | 0.00 | 47 | 1011.7 |
| 20260503223554 | 23 | 196 | 4.8 | 17.7 | 0.00 | 0.00 | 0.00 | 48 | 1011.5 |
| 20260503223109 | 23 | 184 | 4.8 | 19.3 | 0.00 | 0.00 | 0.00 | 47 | 1011.7 |
| 20260503222552 | 23 | 178 | 3.2 | 27.4 | 0.00 | 0.00 | 0.00 | 48 | 1011.6 |
| 20260503222052 | 23 | 228 | 8.0 | 29.0 | 0.00 | 0.00 | 0.00 | 46 | 1011.7 |
| 20260503221554 | 23 | 212 | 9.7 | 29.0 | 0.00 | 0.00 | 0.00 | 46 | 1011.7 |
| 20260503221052 | 23 | 184 | 9.7 | 24.1 | 0.00 | 0.00 | 0.00 | 46 | 1011.9 |
| 20260503220651 | 23 | 225 | 8.0 | 30.6 | 0.00 | 0.00 | 0.00 | 45 | 1011.9 |
| 20260503220053 | 23 | 255 | 8.0 | 35.4 | 0.00 | 0.00 | 0.00 | 46 | 1011.9 |
| 20260503215551 | 23 | 153 | 14.5 | 35.4 | 0.00 | 0.00 | 0.00 | 44 | 1012.0 |
| 20260503215051 | 23 | 213 | 12.9 | 27.4 | 0.00 | 0.00 | 0.00 | 44 | 1012.0 |
| 20260503214556 | 23 | 214 | 4.8 | 24.1 | 0.00 | 0.00 | 0.00 | 46 | 1012.1 |
| 20260503214050 | 23 | 190 | 9.7 | 19.3 | 0.00 | 0.00 | 0.00 | 44 | 1012.1 |
| 20260503213550 | 23 | 157 | 6.4 | 17.7 | 0.00 | 0.00 | 0.00 | 45 | 1012.1 |
| 20260503213051 | 23 | 164 | 8.0 | 17.7 | 0.00 | 0.00 | 0.00 | 50 | 1012.2 |
| 20260503212549 | 23 | 236 | 4.8 | 24.1 | 0.00 | 0.00 | 0.00 | 45 | 1012.2 |
| 20260503212047 | 23 | 216 | 9.7 | 24.1 | 0.00 | 0.00 | 0.00 | 44 | 1012.3 |
| 20260503211547 | 23 | 145 | 6.4 | 24.1 | 0.00 | 0.00 | 0.00 | 45 | 1012.3 |
| 20260503211047 | 23 | 190 | 6.4 | 20.9 | 0.00 | 0.00 | 0.00 | 45 | 1012.6 |
| 20260503210648 | 23 | 242 | 8.0 | 24.1 | 0.00 | 0.00 | 0.00 | 45 | 1012.6 |
| 20260503210050 | 23 | 221 | 9.7 | 33.8 | 0.00 | 0.00 | 0.00 | 43 | 1012.7 |
| 20260503205550 | 23 | 156 | 9.7 | 22.5 | 0.00 | 0.00 | 0.00 | 44 | 1012.8 |
| 20260503205049 | 23 | 213 | 9.7 | 30.6 | 0.00 | 0.00 | 0.00 | 45 | 1012.9 |
| 20260503204548 | 23 | 187 | 17.7 | 30.6 | 0.00 | 0.00 | 0.00 | 44 | 1013.1 |
| 20260503204047 | 23 | 157 | 11.3 | 35.4 | 0.00 | 0.00 | 0.00 | 45 | 1013.2 |
| 20260503203547 | 23 | 196 | 9.7 | 35.4 | 0.00 | 0.00 | 0.00 | 44 | 1013.4 |
| 20260503203048 | 23 | 184 | 6.4 | 20.9 | 0.00 | 0.00 | 0.00 | 43 | 1013.6 |
| 20260503202550 | 23 | 183 | 4.8 | 17.7 | 0.00 | 0.00 | 0.00 | 44 | 1013.6 |
| 20260503202045 | 23 | 133 | 4.8 | 33.8 | 0.00 | 0.00 | 0.00 | 44 | 1013.8 |
| 20260503201549 | 23 | 165 | 16.1 | 33.8 | 0.00 | 0.00 | 0.00 | 41 | 1013.9 |
| 20260503201043 | 23 | 232 | 8.0 | 32.2 | 0.00 | 0.00 | 0.00 | 43 | 1014.0 |
| 20260503200644 | 23 | 151 | 4.8 | 25.7 | 0.00 | 0.00 | 0.00 | 46 | 1014.1 |
| 20260503200047 | 22 | 195 | 9.7 | 32.2 | 0.00 | 0.00 | 0.00 | 43 | 1014.1 |
| 20260503195545 | 22 | 219 | 9.7 | 32.2 | 0.00 | 0.00 | 0.00 | 43 | 1014.3 |
| 20260503195045 | 23 | 234 | 12.9 | 32.2 | 0.00 | 0.00 | 0.00 | 45 | 1014.3 |
| 20260503194553 | 22 | 247 | 8.0 | 25.7 | 0.00 | 0.00 | 0.00 | 42 | 1014.3 |
| 20260503194046 | 23 | 216 | 4.8 | 25.7 | 0.00 | 0.00 | 0.00 | 43 | 1014.6 |
| 20260503193543 | 22 | 308 | 6.4 | 19.3 | 0.00 | 0.00 | 0.00 | 45 | 1014.6 |
| 20260503193041 | 23 | 238 | 9.7 | 19.3 | 0.00 | 0.00 | 0.00 | 43 | 1014.8 |
| 20260503192540 | 22 | 192 | 4.8 | 24.1 | 0.00 | 0.00 | 0.00 | 43 | 1014.9 |
| 20260503192040 | 22 | 145 | 12.9 | 25.7 | 0.00 | 0.00 | 0.00 | 41 | 1014.9 |
| 20260503191539 | 22 | 190 | 8.0 | 25.7 | 0.00 | 0.00 | 0.00 | 42 | 1014.9 |
| 20260503191039 | 22 | 190 | 9.7 | 27.4 | 0.00 | 0.00 | 0.00 | 42 | 1015.0 |
| 20260503190641 | 22 | 196 | 6.4 | 35.4 | 0.00 | 0.00 | 0.00 | 41 | 1015.0 |
| 20260503190046 | 22 | 218 | 8.0 | 33.8 | 0.00 | 0.00 | 0.00 | 44 | 1015.0 |
| 20260503185542 | 22 | 219 | 11.3 | 29.0 | 0.00 | 0.00 | 0.00 | 41 | 1015.2 |
| 20260503185042 | 22 | 210 | 4.8 | 29.0 | 0.00 | 0.00 | 0.00 | 46 | 1015.1 |
| 20260503184543 | 21 | 150 | 14.5 | 29.0 | 0.00 | 0.00 | 0.00 | 41 | 1015.3 |
| 20260503184041 | 22 | 227 | 11.3 | 27.4 | 0.00 | 0.00 | 0.00 | 41 | 1015.4 |
| 20260503183539 | 22 | 178 | 12.9 | 25.7 | 0.00 | 0.00 | 0.00 | 42 | 1015.5 |
| 20260503183042 | 22 | 281 | 6.4 | 24.1 | 0.00 | 0.00 | 0.00 | 43 | 1015.7 |
| 20260503182537 | 22 | 265 | 8.0 | 24.1 | 0.00 | 0.00 | 0.00 | 41 | 1015.7 |
| 20260503182036 | 21 | 208 | 8.0 | 20.9 | 0.00 | 0.00 | 0.00 | 42 | 1015.8 |
| 20260503181554 | 22 | 215 | 4.8 | 24.1 | 0.00 | 0.00 | 0.00 | 45 | 1016.1 |
| 20260503181038 | 21 | 135 | 4.8 | 30.6 | 0.00 | 0.00 | 0.00 | 48 | 1016.1 |
| 20260503180505 | 21 | 233 | 9.7 | 30.6 | 0.00 | 0.00 | 0.00 | 44 | 1016.1 |
| 20260503180013 | 21 | 142 | 4.8 | 29.0 | 0.00 | 0.00 | 0.00 | 47 | 1016.2 |
| 20260503175504 | 21 | 172 | 8.0 | 22.5 | 0.00 | 0.00 | 0.00 | 46 | 1016.5 |
| 20260503175002 | 21 | 229 | 1.6 | 22.5 | 0.00 | 0.00 | 0.00 | 51 | 1016.6 |
| 20260503174618 | 21 | 177 | 4.8 | 19.3 | 0.00 | 0.00 | 0.00 | 42 | 1016.8 |
| 20260503174102 | 20 | 171 | 9.7 | 19.3 | 0.00 | 0.00 | 0.00 | 44 | 1017.1 |
| 20260503173558 | 20 | 190 | 8.0 | 30.6 | 0.00 | 0.00 | 0.00 | 46 | 1017.2 |
| 20260503173110 | 20 | 212 | 11.3 | 30.6 | 0.00 | 0.00 | 0.00 | 44 | 1017.4 |
| 20260503172557 | 20 | 329 | 6.4 | 24.1 | 0.00 | 0.00 | 0.00 | 44 | 1017.5 |
| 20260503172054 | 20 | 222 | 8.0 | 24.1 | 0.00 | 0.00 | 0.00 | 46 | 1017.6 |
| 20260503171552 | 20 | 180 | 4.8 | 16.1 | 0.00 | 0.00 | 0.00 | 46 | 1017.9 |
| 20260503171052 | 20 | 177 | 6.4 | 20.9 | 0.00 | 0.00 | 0.00 | 45 | 1017.9 |
| 20260503170502 | 19 | 308 | 6.4 | 30.6 | 0.00 | 0.00 | 0.00 | 46 | 1018.0 |
| 20260503150645 | 15 | 293 | 11.3 | 22.5 | 0.00 | 0.00 | 0.00 | 56 | 1019.7 |
| 20260503131054 | 9 | 139 | 9.7 | 22.5 | 0.00 | 0.00 | 0.00 | 74 | 1020.0 |
| 20260503130531 | 9 | 190 | 4.8 | 14.5 | 0.00 | 0.00 | 0.00 | 76 | 1020.0 |